SCP
0 0 0 0 0 0 0 0 0 0 0 -0 -0 0 -0 0 -0 0 -0 -0 -0 0 0 0 0 0 0 0 0 -0 0 0 0 0 0 0 0 0 0 0 0 0 0 0
0 0 0 0 0 0 0 0 0 0 0 0 0 0 -0 -0 0 -0 0 0 -0 -0 0 0 0 -0 0 -0 0 -0 0 0 0 0 0 0 0 0 0 0 0 0 0 0
0 0 0 0 0 0 0 0 0 0 0 0 0 -0 -0 -0 -0 -0 -0 0 -0 -0 -0 0 0 0 0 0 0 -0 0 0 0 0 0 0 0 0 0 0 0 0 0 0
0 0 0 0 0 -0 -0 -0 -0 0 0 0 -0 -0 -0 -0 0 0 -0 -0 0 0 -0 0 0 0 0 0 -0 0 0 0 0 0 0 0 0 0 0 0 0 0 0 0
0 0 0 0 0 -0 -0 -0 0 0 0 0 -0 -0 -0 0 0 0 -0 -0 -0 0 0 0 0 0 0 0 0 0 0 0 0 0 0 0 0 0 0 0 0 0 0 0
0 0 0 0 0 -0 0 -0 -0 0 0 0 -0 -0 -0 -0 0 -0 0 0 0 0 0 0 0 0 0 0 0 -0 0 0 0 0 0 0 0 0 0 0 0 0 0 0
0 0 0 0 0 -0 0 -0 -0 0 0 0 0 -0 -0 -0 -0 -0 0 0 0 0 0 0 0 0 0 -0 0 0 -0 -0 -0 -0 0 0 0 0 0 0 0 0 0 0
0 0 -0 0 0 -0 -0 0 0 0 0 0 0 -0 -0 -0 -0 -0 -0 -0 0 -0 0 0 0 0 0 0 0 0 0 0 0 0 0 0 0 0 0 0 0 0 0 0
0 0 -0 0 0 -0 -0 -0 -0 0 0 0 0 -0 -0 0 -0 -0 -0 0 0 0 0 0 0 0 0 0 0 0 0 0 0 0 0 0 0 0 0 0 0 0 0 0
0 0 0 -0 -0 -0 -0 0 -0 -0 0 0 0 0 0 0 0 0 -0 -0 -0 -0 -0 0 0 0 0 0 0 0 0 0 0 0 0 0 0 0 0 0 0 0 0 0
0 -0 -0 -0 -0 -0 -0 -0 -0 -0 0 -0 0 0 0 0 0 0 -0 0 0 0 -0 0 0 0 0 0 0 0 0 0 0 0 0 0 0 0 0 0 0 0 0 0
0 -0 -0 -0 -0 -0 -0 -0 -0 -0 0 -0 -0 0 0 -0 0 0 0 0 0 0 0 0 0 0 0 0 0 0 0 0 0 0 0 0 0 0 0 0 0 0 0 0
0 0 -0 -0 -0 -0 -0 -0 -0 -0 0 -0 -0 -0 -0 0 0 0 0 0 -0 0 0 0 -0 0 0 0 0 0 0 0 0 0 0 0 0 0 0 0 0 0 0 0
0 0 -0 -0 -0 -0 -0 -0 -0 0 0 0 0 -0 -0 -0 -0 -0 -0 0 0 0 0 0 0 0 0 0 0 0 0 0 0 0 0 0 0 0 0 0 0 0 0 0
0 -0 -0 -0 -0 -0 -0 -0 -0 0 0 0 0 0 -0 -0 -0 -0 -0 0 -0 0 0 0 0 0 0 0 0 0 0 0 0 0 0 0 0 0 0 0 0 0 0 0
-0 -0 -0 -0 -0 -0 -0 0 -0 -0 0 0 0 0 0 0 0 0 -0 -0 0 0 0 0 0 0 0 0 0 0 0 0 0 0 0 0 0 0 0 0 0 0 0 0
0 -0 -0 -0 -0 -0 -0 0 -0 -0 -0 0 0 0 0 0 0 0 0 0 0 0 0 0 0 0 0 0 0 -0 0 0 0 0 0 0 0 0 0 0 0 0 0 0
-0 -0 -0 -0 -0 -0 -0 -0 -0 -0 0 0 0 0 0 0 0 0 0 0 0 0 0 0 0 0 0 0 0 0 0 0 0 0 0 0 0 0 0 0 0 0 0 0
-0 -0 -0 0 0 -0 -0 -0 -0 -0 0 0 0 0 0 0 0 0 0 0 0 0 0 0 0 0 0 0 0 0 0 0 0 0 0 0 0 0 0 0 0 0 0 0
-0 0 0 0 0 0 -0 -0 -0 -0 -0 0 0 0 0 0 0 0 0 0 0 0 0 -0 0 0 0 0 0 0 0 0 0 0 0 0 0 0 0 0 0 0 0 0
0 0 0 0 0 0 0 -0 -0 -0 -0 0 0 0 0 0 0 0 0 0 0 0 0 0 0 0 0 0 0 0 0 0 0 0 0 0 0 0 0 0 0 0 0 0
0 0 0 0 0 0 0 0 0 -0 -0 0 0 0 0 0 0 0 0 0 0 0 0 0 0 0 0 0 0 0 0 0 0 0 0 0 0 0 0 0 0 0 0 0
0 0 0 0 0 0 0 0 -0 0 -0 -0 0 0 0 0 0 0 0 0 0 0 0 0 0 0 0 0 0 0 0 0 0 0 0 0 0 0 0 0 0 0 0 0
0 0 0 0 0 -0 -0 0 0 0 -0 -0 -0 0 0 0 0 0 0 0 0 0 0 0 0 0 0 0 0 0 0 0 0 0 0 0 0 0 0 0 0 0 0 0
0 0 0 0 0 0 0 0 0 0 0 -0 -0 -0 0 0 0 0 0 0 0 0 0 0 0 0 -0 0 0 0 0 0 0 0 0 0 -0 -0 0 0 0 0 0 0
0 0 0 0 0 0 0 0 0 0 -0 0 0 0 0 0 0 0 0 0 0 0 0 0 -0 -0 0 0 0 0 0 0 0 0 0 0 0 0 0 -0 0 0 0 0
0 0 -0 0 -0 0 0 0 0 0 0 0 0 0 0 0 0 0 0 0 0 0 0 0 0 -0 0 0 0 0 0 0 0 0 0 0 0 0 0 -0 0 0 0 0
Wind_Speed_500mb
69 66 63 70 71 76 55 26 9 18 33 2 3 7 14 25 52 63 15 14 31 10 25 16 25 47 36 59 45 39 23 4 22 45 38 38 40 36 39 21 30 20 14 6
66 59 65 66 65 68 61 31 28 15 15 4 5 14 32 50 45 42 32 14 21 13 2 7 40 44 33 64 36 30 18 10 21 35 41 43 43 42 33 30 18 22 9 16
62 55 63 66 67 62 45 16 10 19 14 9 8 15 20 34 41 20 9 2 9 5 13 6 15 19 27 45 32 26 16 13 27 22 34 36 33 26 33 29 15 18 6 28
58 55 62 64 66 51 24 11 12 20 15 18 25 22 17 32 18 14 15 2 15 9 3 2 9 22 35 38 48 21 12 18 21 8 19 27 29 31 31 28 33 25 23 30
56 52 58 61 64 53 28 24 13 24 22 34 35 14 15 15 21 19 15 9 13 7 5 3 9 28 34 44 49 38 14 9 9 5 10 19 33 40 29 8 18 8 25 9
53 49 52 55 58 53 26 36 32 14 26 23 23 18 21 25 27 15 11 13 11 7 8 24 37 50 28 47 41 31 24 12 7 5 14 16 21 34 19 27 28 11 12 18
49 45 48 52 53 52 38 44 32 11 10 16 25 29 25 31 33 21 27 19 16 17 43 32 7 32 27 40 21 19 19 8 8 5 10 9 13 10 13 13 23 26 10 22
47 45 46 50 50 52 41 37 22 11 9 26 23 45 28 33 38 24 12 13 13 19 40 14 13 21 18 27 23 17 21 18 7 6 10 28 20 20 13 19 17 20 13 24
45 45 46 47 47 49 45 34 27 25 13 13 40 28 33 7 15 17 16 17 13 11 10 8 9 8 6 7 8 20 20 21 4 7 5 10 22 16 9 10 18 12 9 23
44 44 44 45 46 48 45 23 30 33 17 21 35 11 11 21 15 9 18 35 24 20 9 9 11 11 11 9 11 5 14 12 5 9 6 12 18 11 3 10 13 18 18 26
41 44 44 45 46 46 46 30 27 28 19 28 28 32 39 30 36 11 36 10 16 10 4 8 7 10 9 17 22 9 13 11 10 4 9 9 8 8 7 17 25 23 40 36
39 43 46 47 47 48 43 29 31 29 15 22 28 19 26 32 28 30 32 27 28 20 13 10 8 6 17 17 13 19 12 15 7 9 14 32 45 41 30 26 30 28 27 19
40 41 45 44 45 44 36 30 36 32 19 22 9 29 27 23 25 27 18 28 31 23 19 4 6 12 10 7 17 21 11 13 13 15 25 27 37 41 30 39 25 17 11 6
40 41 43 42 41 36 28 23 26 27 13 6 13 22 29 27 22 26 22 21 30 24 24 16 13 12 14 11 14 16 9 1 20 26 26 32 26 23 19 16 12 6 4 8
40 40 42 38 32 24 13 18 15 22 14 9 16 10 26 29 27 24 29 34 44 22 19 14 13 14 15 21 16 19 26 17 8 6 17 31 20 19 14 10 23 22 14 14
38 41 38 30 22 14 21 5 10 22 18 8 7 9 18 25 24 21 27 32 31 24 28 12 12 5 11 9 16 24 28 26 26 17 19 19 12 14 23 25 20 15 16 14
36 37 28 22 12 14 7 7 19 22 14 8 10 4 13 19 20 14 18 25 28 23 20 22 24 15 16 18 18 29 25 23 26 23 11 23 22 15 14 14 12 13 9 11
29 25 20 11 9 8 7 10 22 10 9 8 6 6 7 20 14 11 21 16 15 20 9 13 10 14 10 8 20 23 33 30 30 25 21 19 15 17 13 10 9 10 9 12
19 14 11 9 10 10 9 13 7 9 3 10 5 7 6 10 10 8 11 11 5 13 6 8 8 5 9 13 10 14 17 17 19 18 16 15 12 8 3 6 12 13 14 17
19 16 6 6 14 17 6 5 2 4 2 6 5 14 2 6 1 5 4 5 3 3 8 5 4 9 20 26 24 25 14 17 14 14 12 17 17 17 19 21 18 16 17 17
20 12 8 16 17 7 5 5 3 2 3 4 7 8 8 5 2 4 4 2 1 1 1 0 3 6 14 17 21 21 19 19 18 16 16 14 17 20 17 16 17 16 15 11
21 20 14 11 6 8 7 5 6 1 5 9 12 13 6 5 4 4 4 2 3 5 7 5 5 9 20 17 21 19 18 20 20 19 18 21 20 19 16 14 13 12 10 10
7 6 6 6 7 5 5 7 6 5 12 13 12 8 6 3 2 4 1 3 3 1 3 4 5 24 19 18 20 19 19 18 18 19 20 21 20 20 17 12 13 8 9 10
4 6 7 6 4 7 6 7 7 5 9 15 16 13 4 4 5 5 2 4 2 4 4 4 9 20 19 20 19 18 17 17 18 19 19 20 19 17 16 14 12 11 9 9
5 7 5 4 9 5 2 7 7 6 8 11 10 10 7 4 4 4 4 4 5 9 4 7 24 19 23 22 19 17 17 17 18 18 19 19 19 17 16 16 14 14 13 13
5 7 10 3 6 4 3 6 6 5 9 9 7 5 4 3 4 4 3 5 7 4 6 27 25 25 24 21 17 18 18 19 20 21 21 22 21 20 19 20 19 21 22 23
6 11 13 15 12 1 3 4 2 3 4 4 3 4 3 6 3 4 7 2 2 15 20 19 23 26 23 19 18 18 19 20 20 22 22 24 24 21 24 26 26 28 29 30
Wind_Direction_500mb
349 348 347 350 349 347 353 323 311 325 331 105 345 288 263 289 296 293 245 219 271 277 335 164 206 198 181 190 207 210 220 255 200 193 195 215 207 207 206 227 235 258 102 201
349 348 349 353 353 354 343 319 297 300 323 316 257 267 280 289 273 264 259 230 280 111 246 10 239 193 173 182 190 208 189 227 169 243 186 206 215 213 219 217 274 252 224 169
349 349 351 354 356 357 342 303 329 341 290 331 314 296 304 325 320 292 169 67 314 307 126 150 286 197 152 186 181 236 310 208 198 212 187 192 212 225 206 207 201 250 88 145
350 349 352 354 357 1 349 329 350 4 312 326 315 330 308 330 334 28 46 177 242 339 48 244 242 271 160 192 180 211 221 175 217 38 334 203 194 214 222 159 241 228 127 153
352 352 353 358 358 4 0 357 351 330 288 312 327 345 335 308 329 354 2 44 29 21 120 212 312 220 173 180 181 207 172 120 88 175 282 291 228 217 229 114 89 55 71 79
354 352 355 1 1 9 347 343 342 334 302 338 345 353 335 310 289 359 12 72 79 46 348 301 285 270 172 172 184 189 181 132 138 227 305 259 250 217 211 163 118 77 97 221
352 352 353 360 2 1 343 335 337 326 304 330 344 342 344 349 24 54 33 14 38 5 354 331 279 76 141 140 146 172 141 61 51 24 209 162 271 341 289 184 165 164 123 73
353 351 349 354 1 356 352 342 337 332 301 309 335 350 356 352 8 13 37 54 113 77 16 20 24 80 49 79 47 10 162 154 119 142 163 133 133 172 164 157 126 111 149 115
352 351 347 350 359 357 351 344 355 339 306 318 350 344 355 348 343 344 12 358 189 131 23 0 24 67 110 71 68 9 102 90 96 211 163 91 97 75 118 155 107 125 159 118
350 352 351 352 355 357 354 337 359 342 304 307 345 353 319 11 348 276 354 352 3 194 126 12 41 60 122 82 99 191 137 106 181 117 100 69 82 80 4 189 90 103 92 124
344 346 346 348 351 356 353 325 344 344 310 311 5 10 14 12 2 355 328 2 19 33 28 31 38 67 79 89 97 103 103 131 139 173 110 108 102 97 48 103 82 77 60 59
338 341 341 340 345 347 347 330 4 340 293 306 326 1 20 12 5 345 333 22 6 11 26 24 75 78 91 79 99 44 52 29 68 41 92 78 76 92 80 78 71 67 75 63
336 336 336 334 339 343 338 322 339 344 311 321 37 15 10 9 3 4 345 10 356 348 326 268 114 71 27 74 83 87 53 33 124 104 89 97 93 66 76 75 75 70 68 26
333 334 336 334 337 336 331 337 348 352 317 273 35 16 17 16 14 5 9 338 326 289 5 31 51 76 117 88 83 67 84 105 107 97 115 100 91 96 83 67 47 32 337 358
333 334 335 337 341 342 339 315 12 0 5 322 313 330 14 15 12 12 4 1 356 43 58 40 49 44 6 74 56 57 53 29 84 104 55 114 103 93 76 63 56 42 31 32
333 336 337 342 352 357 358 326 38 352 345 308 316 34 7 5 359 9 14 6 9 33 36 84 64 33 330 94 100 74 77 67 65 74 65 85 89 76 62 65 62 47 34 17
331 337 336 339 7 27 333 337 313 328 344 292 313 22 9 5 10 10 29 23 32 23 41 26 54 28 30 75 77 67 75 78 71 64 50 76 50 71 61 56 47 38 8 9
330 333 335 348 343 349 337 334 340 6 329 323 323 318 24 20 14 12 19 17 15 33 32 36 29 49 69 78 63 60 55 64 56 46 53 52 51 61 66 59 41 45 350 331
346 341 353 359 1 332 321 324 94 21 5 320 296 351 348 349 24 353 26 6 63 29 357 51 25 30 47 53 38 65 69 67 52 51 58 60 71 77 37 333 328 332 5 5
8 357 340 335 339 312 333 307 243 180 262 264 278 346 18 4 26 10 33 43 70 38 31 123 82 82 68 71 76 71 56 74 67 69 27 8 13 7 7 27 14 7 2 354
359 338 335 316 321 324 269 282 287 215 306 32 321 9 1 43 20 31 44 49 232 143 117 271 131 84 96 83 83 76 60 53 49 56 49 44 44 39 20 7 358 350 342 349
313 310 302 304 275 249 257 213 167 13 44 348 342 330 324 325 27 9 355 308 248 67 118 183 120 119 105 90 73 71 71 76 69 62 57 64 56 30 15 5 1 353 6 349
329 311 257 262 258 328 324 27 20 64 2 347 318 323 313 307 348 242 185 11 54 302 260 76 76 141 124 109 96 84 85 76 64 58 61 60 35 31 27 20 6 19 25 356
301 306 293 270 346 46 2 354 345 339 321 323 322 301 308 285 237 227 190 142 201 250 168 84 140 124 121 114 101 92 82 70 62 54 58 45 33 34 35 36 37 31 25 4
291 280 266 303 92 122 274 314 307 310 305 306 322 288 272 284 288 261 70 230 253 45 90 114 138 141 121 108 97 90 82 75 65 56 55 43 36 45 40 37 43 49 58 67
253 250 250 150 305 156 172 243 284 282 273 291 242 283 287 239 324 292 359 14 32 57 122 130 139 126 117 106 97 89 86 79 73 64 70 53 51 57 57 55 57 59 68 77
247 241 250 270 261 25 234 165 251 199 219 251 198 263 342 332 305 54 14 37 76 141 119 131 130 127 122 117 103 96 90 83 78 75 80 69 63 72 68 65 65 70 73 78
Wind_Speed_850mb
69 66 63 70 71 76 55 26 9 18 33 2 3 7 14 25 52 63 15 14 31 10 25 16 25 47 36 59 45 39 23 4 22 45 38 38 40 36 39 21 30 20 14 6
66 59 65 66 65 68 61 31 28 15 15 4 5 14 32 50 45 42 32 14 21 13 2 7 40 44 33 64 36 30 18 10 21 35 41 43 43 42 33 30 18 22 9 16
62 55 63 66 67 62 45 16 10 19 14 9 8 15 20 34 41 20 9 2 9 5 13 6 15 19 27 45 32 26 16 13 27 22 34 36 33 26 33 29 15 18 6 28
58 55 62 64 66 51 24 11 12 20 15 18 25 22 17 32 18 14 15 2 15 9 3 2 9 22 35 38 48 21 12 18 21 8 19 27 29 31 31 28 33 25 23 30
56 52 58 61 64 53 28 24 13 24 22 34 35 14 15 15 21 19 15 9 13 7 5 3 9 28 34 44 49 38 14 9 9 5 10 19 33 40 29 8 18 8 25 9
53 49 52 55 58 53 26 36 32 14 26 23 23 18 21 25 27 15 11 13 11 7 8 24 37 50 28 47 41 31 24 12 7 5 14 16 21 34 19 27 28 11 12 18
49 45 48 52 53 52 38 44 32 11 10 16 25 29 25 31 33 21 27 19 16 17 43 32 7 32 27 40 21 19 19 8 8 5 10 9 13 10 13 13 23 26 10 22
47 45 46 50 50 52 41 37 22 11 9 26 23 45 28 33 38 24 12 13 13 19 40 14 13 21 18 27 23 17 21 18 7 6 10 28 20 20 13 19 17 20 13 24
45 45 46 47 47 49 45 34 27 25 13 13 40 28 33 7 15 17 16 17 13 11 10 8 9 8 6 7 8 20 20 21 4 7 5 10 22 16 9 10 18 12 9 23
44 44 44 45 46 48 45 23 30 33 17 21 35 11 11 21 15 9 18 35 24 20 9 9 11 11 11 9 11 5 14 12 5 9 6 12 18 11 3 10 13 18 18 26
41 44 44 45 46 46 46 30 27 28 19 28 28 32 39 30 36 11 36 10 16 10 4 8 7 10 9 17 22 9 13 11 10 4 9 9 8 8 7 17 25 23 40 36
39 43 46 47 47 48 43 29 31 29 15 22 28 19 26 32 28 30 32 27 28 20 13 10 8 6 17 17 13 19 12 15 7 9 14 32 45 41 30 26 30 28 27 19
40 41 45 44 45 44 36 30 36 32 19 22 9 29 27 23 25 27 18 28 31 23 19 4 6 12 10 7 17 21 11 13 13 15 25 27 37 41 30 39 25 17 11 6
40 41 43 42 41 36 28 23 26 27 13 6 13 22 29 27 22 26 22 21 30 24 24 16 13 12 14 11 14 16 9 1 20 26 26 32 26 23 19 16 12 6 4 8
40 40 42 38 32 24 13 18 15 22 14 9 16 10 26 29 27 24 29 34 44 22 19 14 13 14 15 21 16 19 26 17 8 6 17 31 20 19 14 10 23 22 14 14
38 41 38 30 22 14 21 5 10 22 18 8 7 9 18 25 24 21 27 32 31 24 28 12 12 5 11 9 16 24 28 26 26 17 19 19 12 14 23 25 20 15 16 14
36 37 28 22 12 14 7 7 19 22 14 8 10 4 13 19 20 14 18 25 28 23 20 22 24 15 16 18 18 29 25 23 26 23 11 23 22 15 14 14 12 13 9 11
29 25 20 11 9 8 7 10 22 10 9 8 6 6 7 20 14 11 21 16 15 20 9 13 10 14 10 8 20 23 33 30 30 25 21 19 15 17 13 10 9 10 9 12
19 14 11 9 10 10 9 13 7 9 3 10 5 7 6 10 10 8 11 11 5 13 6 8 8 5 9 13 10 14 17 17 19 18 16 15 12 8 3 6 12 13 14 17
19 16 6 6 14 17 6 5 2 4 2 6 5 14 2 6 1 5 4 5 3 3 8 5 4 9 20 26 24 25 14 17 14 14 12 17 17 17 19 21 18 16 17 17
20 12 8 16 17 7 5 5 3 2 3 4 7 8 8 5 2 4 4 2 1 1 1 0 3 6 14 17 21 21 19 19 18 16 16 14 17 20 17 16 17 16 15 11
21 20 14 11 6 8 7 5 6 1 5 9 12 13 6 5 4 4 4 2 3 5 7 5 5 9 20 17 21 19 18 20 20 19 18 21 20 19 16 14 13 12 10 10
7 6 6 6 7 5 5 7 6 5 12 13 12 8 6 3 2 4 1 3 3 1 3 4 5 24 19 18 20 19 19 18 18 19 20 21 20 20 17 12 13 8 9 10
4 6 7 6 4 7 6 7 7 5 9 15 16 13 4 4 5 5 2 4 2 4 4 4 9 20 19 20 19 18 17 17 18 19 19 20 19 17 16 14 12 11 9 9
5 7 5 4 9 5 2 7 7 6 8 11 10 10 7 4 4 4 4 4 5 9 4 7 24 19 23 22 19 17 17 17 18 18 19 19 19 17 16 16 14 14 13 13
5 7 10 3 6 4 3 6 6 5 9 9 7 5 4 3 4 4 3 5 7 4 6 27 25 25 24 21 17 18 18 19 20 21 21 22 21 20 19 20 19 21 22 23
6 11 13 15 12 1 3 4 2 3 4 4 3 4 3 6 3 4 7 2 2 15 20 19 23 26 23 19 18 18 19 20 20 22 22 24 24 21 24 26 26 28 29 30
Wind_Direction_850mb
349 348 347 350 349 347 353 323 311 325 331 105 345 288 263 289 296 293 245 219 271 277 335 164 206 198 181 190 207 210 220 255 200 193 195 215 207 207 206 227 235 258 102 201
349 348 349 353 353 354 343 319 297 300 323 316 257 267 280 289 273 264 259 230 280 111 246 10 239 193 173 182 190 208 189 227 169 243 186 206 215 213 219 217 274 252 224 169
349 349 351 354 356 357 342 303 329 341 290 331 314 296 304 325 320 292 169 67 314 307 126 150 286 197 152 186 181 236 310 208 198 212 187 192 212 225 206 207 201 250 88 145
350 349 352 354 357 1 349 329 350 4 312 326 315 330 308 330 334 28 46 177 242 339 48 244 242 271 160 192 180 211 221 175 217 38 334 203 194 214 222 159 241 228 127 153
352 352 353 358 358 4 0 357 351 330 288 312 327 345 335 308 329 354 2 44 29 21 120 212 312 220 173 180 181 207 172 120 88 175 282 291 228 217 229 114 89 55 71 79
354 352 355 1 1 9 347 343 342 334 302 338 345 353 335 310 289 359 12 72 79 46 348 301 285 270 172 172 184 189 181 132 138 227 305 259 250 217 211 163 118 77 97 221
352 352 353 360 2 1 343 335 337 326 304 330 344 342 344 349 24 54 33 14 38 5 354 331 279 76 141 140 146 172 141 61 51 24 209 162 271 341 289 184 165 164 123 73
353 351 349 354 1 356 352 342 337 332 301 309 335 350 356 352 8 13 37 54 113 77 16 20 24 80 49 79 47 10 162 154 119 142 163 133 133 172 164 157 126 111 149 115
352 351 347 350 359 357 351 344 355 339 306 318 350 344 355 348 343 344 12 358 189 131 23 0 24 67 110 71 68 9 102 90 96 211 163 91 97 75 118 155 107 125 159 118
350 352 351 352 355 357 354 337 359 342 304 307 345 353 319 11 348 276 354 352 3 194 126 12 41 60 122 82 99 191 137 106 181 117 100 69 82 80 4 189 90 103 92 124
344 346 346 348 351 356 353 325 344 344 310 311 5 10 14 12 2 355 328 2 19 33 28 31 38 67 79 89 97 103 103 131 139 173 110 108 102 97 48 103 82 77 60 59
338 341 341 340 345 347 347 330 4 340 293 306 326 1 20 12 5 345 333 22 6 11 26 24 75 78 91 79 99 44 52 29 68 41 92 78 76 92 80 78 71 67 75 63
336 336 336 334 339 343 338 322 339 344 311 321 37 15 10 9 3 4 345 10 356 348 326 268 114 71 27 74 83 87 53 33 124 104 89 97 93 66 76 75 75 70 68 26
333 334 336 334 337 336 331 337 348 352 317 273 35 16 17 16 14 5 9 338 326 289 5 31 51 76 117 88 83 67 84 105 107 97 115 100 91 96 83 67 47 32 337 358
333 334 335 337 341 342 339 315 12 0 5 322 313 330 14 15 12 12 4 1 356 43 58 40 49 44 6 74 56 57 53 29 84 104 55 114 103 93 76 63 56 42 31 32
333 336 337 342 352 357 358 326 38 352 345 308 316 34 7 5 359 9 14 6 9 33 36 84 64 33 330 94 100 74 77 67 65 74 65 85 89 76 62 65 62 47 34 17
331 337 336 339 7 27 333 337 313 328 344 292 313 22 9 5 10 10 29 23 32 23 41 26 54 28 30 75 77 67 75 78 71 64 50 76 50 71 61 56 47 38 8 9
330 333 335 348 343 349 337 334 340 6 329 323 323 318 24 20 14 12 19 17 15 33 32 36 29 49 69 78 63 60 55 64 56 46 53 52 51 61 66 59 41 45 350 331
346 341 353 359 1 332 321 324 94 21 5 320 296 351 348 349 24 353 26 6 63 29 357 51 25 30 47 53 38 65 69 67 52 51 58 60 71 77 37 333 328 332 5 5
8 357 340 335 339 312 333 307 243 180 262 264 278 346 18 4 26 10 33 43 70 38 31 123 82 82 68 71 76 71 56 74 67 69 27 8 13 7 7 27 14 7 2 354
359 338 335 316 321 324 269 282 287 215 306 32 321 9 1 43 20 31 44 49 232 143 117 271 131 84 96 83 83 76 60 53 49 56 49 44 44 39 20 7 358 350 342 349
313 310 302 304 275 249 257 213 167 13 44 348 342 330 324 325 27 9 355 308 248 67 118 183 120 119 105 90 73 71 71 76 69 62 57 64 56 30 15 5 1 353 6 349
329 311 257 262 258 328 324 27 20 64 2 347 318 323 313 307 348 242 185 11 54 302 260 76 76 141 124 109 96 84 85 76 64 58 61 60 35 31 27 20 6 19 25 356
301 306 293 270 346 46 2 354 345 339 321 323 322 301 308 285 237 227 190 142 201 250 168 84 140 124 121 114 101 92 82 70 62 54 58 45 33 34 35 36 37 31 25 4
291 280 266 303 92 122 274 314 307 310 305 306 322 288 272 284 288 261 70 230 253 45 90 114 138 141 121 108 97 90 82 75 65 56 55 43 36 45 40 37 43 49 58 67
253 250 250 150 305 156 172 243 284 282 273 291 242 283 287 239 324 292 359 14 32 57 122 130 139 126 117 106 97 89 86 79 73 64 70 53 51 57 57 55 57 59 68 77
247 241 250 270 261 25 234 165 251 199 219 251 198 263 342 332 305 54 14 37 76 141 119 131 130 127 122 117 103 96 90 83 78 75 80 69 63 72 68 65 65 70 73 78